Date String (YYYY-MM-DD hh:mm:ss) UTC,Instrument flags,Ambient pressure (hPa),Sample flow (lpm),Bypass flow (lpm),Sample temperature (°C),Ambient temperature (°C),ASC tube jacket temperature (°C),LED temperature (°C),Box temperature (°C),Sample RH (%),Span deviation,Mass concentration (μg/m³),Mass concentration (μg/m³),Mass concentration (μg/m³)
DateTimeUTC,F1_M11,P_M11,Q1_M11,Q2_M11,T1_M11,T2_M11,T3_M11,T4_M11,T5_M11,U1_M11,ZSPAN_M11,X0_M11,X2_M11,X1_M11
2022-03-21 20:00:00,,0824.5,5.00,0.00,21.3,22.0,00.0,30.2,23.1,18.4,0000.0,0007.06,0003.84,0003.40
2022-03-21 20:01:00,,0824.5,4.99,0.00,21.3,21.7,00.0,30.2,23.0,18.7,0000.0,0007.33,0003.85,0003.40
2022-03-21 20:02:00,,0824.5,4.99,0.00,21.3,21.4,00.0,30.2,22.9,18.4,0000.0,0007.35,0003.85,0003.40
2022-03-21 20:03:00,,0824.5,5.01,0.00,21.2,21.2,00.0,30.2,22.9,18.5,0000.0,0007.45,0003.85,0003.41
2022-03-21 20:04:00,,0824.4,5.00,0.00,21.2,21.0,00.0,30.2,22.8,18.6,0000.0,0007.68,0003.88,0003.42
2022-03-21 20:05:00,,0824.4,5.00,0.00,21.2,20.9,00.0,30.2,22.8,18.4,0000.0,0008.15,0003.91,0003.42
2022-03-21 20:06:00,,0824.5,5.00,0.00,21.2,20.7,00.0,30.2,22.8,18.0,0000.0,0008.00,0003.91,0003.42
2022-03-21 20:07:00,,0824.5,5.01,0.00,21.1,20.7,00.0,30.2,22.7,17.8,0000.0,0008.04,0003.90,0003.43
2022-03-21 20:08:00,,0824.4,5.01,0.00,21.1,20.6,00.0,30.2,22.7,18.0,0000.0,0008.02,0003.92,0003.44
2022-03-21 20:09:00,,0824.4,4.99,0.00,21.1,20.5,00.0,30.2,22.7,18.1,0000.0,0008.03,0003.92,0003.44
2022-03-21 20:10:00,,0824.4,5.00,0.00,21.1,20.5,00.0,30.2,22.7,19.0,0000.0,0008.04,0003.94,0003.44
2022-03-21 20:11:00,,0824.4,4.98,0.00,21.1,20.5,00.0,30.2,22.7,19.4,0000.0,0008.69,0003.96,0003.44
2022-03-21 20:12:00,,0824.3,5.00,0.00,21.1,20.4,00.0,30.2,22.6,18.0,0000.0,0008.68,0003.95,0003.43
2022-03-21 20:13:00,,0824.3,5.00,0.00,21.0,20.3,00.0,30.2,22.6,18.2,0000.0,0009.23,0003.99,0003.43
2022-03-21 20:14:00,,0824.3,5.01,0.00,21.0,20.3,00.0,30.1,22.6,18.9,0000.0,0009.44,0004.00,0003.43
2022-03-21 20:15:00,,0824.3,5.00,0.00,21.0,20.4,00.0,30.1,22.6,19.1,0000.0,0009.36,0003.99,0003.43
2022-03-21 20:16:00,,0824.3,5.00,0.00,21.0,20.4,00.0,30.1,22.6,18.4,0000.0,0008.79,0003.93,0003.41
2022-03-21 20:17:00,,0824.3,5.01,0.00,21.0,20.4,00.0,30.1,22.6,17.9,0000.0,0008.71,0003.90,0003.39
2022-03-21 20:18:00,,0824.3,5.00,0.00,21.0,20.4,00.0,30.1,22.6,18.2,0000.0,0008.74,0003.90,0003.38
2022-03-21 20:19:00,,0824.3,4.98,0.00,21.0,20.4,00.0,30.1,22.6,18.2,0000.0,0008.70,0003.89,0003.38
2022-03-21 20:20:00,,0824.3,4.99,0.00,21.0,20.4,00.0,30.1,22.6,18.4,0000.0,0008.68,0003.88,0003.37
2022-03-21 20:21:00,,0824.3,5.01,0.00,21.0,20.4,00.0,30.1,22.6,18.9,0000.0,0008.64,0003.88,0003.38
2022-03-21 20:22:00,,0824.3,5.00,0.00,21.0,20.4,00.0,30.1,22.6,18.5,0000.0,0008.18,0003.88,0003.37
2022-03-21 20:23:00,,0824.3,5.00,0.00,21.0,20.4,00.0,30.1,22.6,18.6,0000.0,0008.19,0003.89,0003.38
2022-03-21 20:24:00,,0824.3,5.00,0.00,21.0,20.5,00.0,30.1,22.7,18.8,0000.0,0008.08,0003.89,0003.39
2022-03-21 20:25:00,,0824.3,5.00,0.00,21.0,20.5,00.0,30.0,22.7,18.4,0000.0,0007.78,0003.89,0003.39
2022-03-21 20:26:00,,0824.3,4.98,0.00,21.0,20.4,00.0,30.0,22.6,18.1,0000.0,0007.79,0003.90,0003.39
2022-03-21 20:27:00,,0824.3,5.00,0.00,21.0,20.4,00.0,30.0,22.6,18.1,0000.0,0007.89,0003.95,0003.40
2022-03-21 20:28:00,,0824.3,5.00,0.00,21.0,20.4,00.0,30.0,22.6,18.0,0000.0,0007.81,0003.96,0003.41
2022-03-21 20:29:00,,0824.2,5.00,0.00,21.0,20.3,00.0,30.0,22.6,17.7,0000.0,0007.60,0003.94,0003.40
2022-03-21 20:30:00,,0824.3,5.01,0.00,20.9,20.3,00.0,30.0,22.6,18.1,0000.0,0007.62,0003.94,0003.39
2022-03-21 20:31:00,,0824.3,5.00,0.00,20.9,20.3,00.0,30.0,22.6,18.0,0000.0,0007.47,0003.92,0003.38
2022-03-21 20:32:00,,0824.3,5.00,0.00,21.0,20.3,00.0,30.0,22.6,18.2,0000.0,0007.48,0003.92,0003.38
2022-03-21 20:33:00,,0824.3,5.00,0.00,21.0,20.4,00.0,30.0,22.7,17.9,0000.0,0007.50,0003.92,0003.37
2022-03-21 20:34:00,,0824.3,5.00,0.00,21.0,20.4,00.0,30.0,22.7,18.2,0000.0,0007.41,0003.90,0003.36
2022-03-21 20:35:00,,0824.3,5.01,0.00,21.0,20.5,00.0,30.0,22.7,17.9,0000.0,0006.92,0003.87,0003.35
2022-03-21 20:36:00,,0824.2,5.00,0.00,21.0,20.5,00.0,30.0,22.7,17.9,0000.0,0006.77,0003.84,0003.34
2022-03-21 20:37:00,,0824.2,4.99,0.00,21.0,20.5,00.0,30.0,22.7,17.5,0000.0,0007.54,0003.80,0003.33
2022-03-21 20:38:00,,0824.2,5.00,0.00,21.0,20.5,00.0,30.0,22.7,18.2,0000.0,0007.79,0003.76,0003.32
2022-03-21 20:39:00,,0824.2,5.00,0.00,21.0,20.5,00.0,30.0,22.7,18.1,0000.0,0007.76,0003.73,0003.32
2022-03-21 20:40:00,,0824.1,5.00,0.00,21.0,20.5,00.0,30.0,22.7,18.3,0000.0,0008.69,0003.72,0003.31
2022-03-21 20:41:00,,0824.1,5.01,0.00,21.1,20.5,00.0,30.0,22.8,17.7,0000.0,0008.69,0003.70,0003.31
2022-03-21 20:42:00,,0824.1,5.01,0.00,21.1,20.6,00.0,30.1,22.9,18.1,0000.0,0008.76,0003.72,0003.30
2022-03-21 20:43:00,,0824.2,5.01,0.00,21.1,20.6,00.0,30.1,22.9,18.0,0000.0,0008.82,0003.71,0003.29
2022-03-21 20:44:00,,0824.2,4.98,0.00,21.1,20.6,00.0,30.1,22.9,17.7,0000.0,0008.80,0003.71,0003.29
2022-03-21 20:45:00,,0824.1,5.00,0.00,21.1,20.6,00.0,30.1,22.9,17.3,0000.0,0008.79,0003.73,0003.30
2022-03-21 20:46:00,,0824.1,5.01,0.00,21.1,20.6,00.0,30.1,22.9,17.4,0000.0,0008.53,0003.71,0003.30
2022-03-21 20:47:00,,0824.2,5.00,0.00,21.2,20.6,00.0,30.1,22.9,17.5,0000.0,0008.55,0003.71,0003.30
2022-03-21 20:48:00,,0824.1,5.01,0.00,21.2,20.6,00.0,30.1,22.9,17.2,0000.0,0008.19,0003.73,0003.31
2022-03-21 20:49:00,,0824.1,5.01,0.00,21.1,20.5,00.0,30.1,22.8,17.1,0000.0,0007.69,0003.73,0003.31
2022-03-21 20:50:00,,0824.1,5.00,0.00,21.1,20.6,00.0,30.1,22.8,17.1,0000.0,0007.66,0003.71,0003.31
2022-03-21 20:51:00,,0824.1,4.99,0.00,21.1,20.6,00.0,30.1,22.8,17.2,0000.0,0006.53,0003.72,0003.31
2022-03-21 20:52:00,,0824.1,5.00,0.00,21.1,20.5,00.0,30.1,22.8,17.8,0000.0,0006.11,0003.74,0003.32
2022-03-21 20:53:00,,0824.1,5.00,0.00,21.1,20.5,00.0,30.1,22.8,17.3,0000.0,0006.26,0003.73,0003.32
2022-03-21 20:54:00,,0824.1,5.01,0.00,21.1,20.5,00.0,30.1,22.8,17.5,0000.0,0006.28,0003.72,0003.31
2022-03-21 20:55:00,,0824.1,4.99,0.00,21.1,20.5,00.0,30.1,22.9,17.8,0000.0,0006.13,0003.69,0003.30
2022-03-21 20:56:00,,0824.1,4.99,0.00,21.1,20.6,00.0,30.1,22.8,17.3,0000.0,0006.03,0003.67,0003.30
2022-03-21 20:57:00,,0824.1,5.00,0.00,21.1,20.6,00.0,30.1,22.8,17.1,0000.0,0005.85,0003.68,0003.30
2022-03-21 20:58:00,,0824.1,5.00,0.00,21.1,20.6,00.0,30.1,22.8,17.0,0000.0,0005.75,0003.68,0003.29
2022-03-21 20:59:00,,0824.1,5.00,0.00,21.2,20.6,00.0,30.1,22.9,17.0,0000.0,0005.72,0003.67,0003.29
